User: anonymous   Login
Location: Lima
(44.6384°N, 112.5920°W)
Time: 00:15:15
(UTC+00:00)
Language:

DUCHIFAT 1 - Orbit

View from above orbital plane
View from above orbital plane
View from above satellite
View from above satellite

Ground track
Ground track

The orbit data is extracted from the following two-line orbital elements,

1 40021U 14033M   24114.42734269  .00023776  00000-0  16539-2 0  9998
2 40021  98.0888  95.5322 0011028 287.6312  72.3708 15.05440952535888
Epoch (UTC): 23 April 2024 10:15:22
Eccentricity: 0.0011028
inclination: 98.0888°
perigee height: 542 km
apogee height: 558 km
right ascension of ascending node: 95.5322°
argument of perigee: 287.6312°
revolutions per day: 15.05440952
mean anomaly at epoch: 72.3708°
orbit number at epoch: 53588

The dashed part of the orbit path shows where the satellite is in the earth's shadow,  

DLR